Home > Weather > Chongqing > Past weeks

Flag for China Weather for the Past 2 Weeks in Chongqing, Chongqing Municipality, China

Now
50 °F

Sunny.


Feels Like: 46 °F
Forecast: 47 / 62 °F
Wind: 10 mph from Northeast

Location: Chongqing Airport

Current Time: Feb 8, 2016 at 11:21:01 AM

Latest Report: Feb 8, 2016 at 10:00 AM


Visibility: 10 mi

Pressure: 30.18 "Hg

Humidity: 47%

Dew point: 30 °F

Location of ChongqingLocation

Historic Weather in Chongqing — Graph

°F

Chongqing Temperature Yesterday

Maximum temperature yesterday: 61 °F (at 4:00 PM)
Minimum temperature yesterday: 36 °F (at 6:00 AM)
Average temperature yesterday: 48 °F

High & Low Weather Summary for the Past Weeks

 TemperatureHumidityPressure
High61 °F (Feb 7, 4:00 PM)93% (Jan 25, 7:00 AM)30.89 "Hg (Jan 25, 7:00 AM)
Low28 °F (Jan 25, 7:00 AM)25% (Feb 7, 6:00 PM)30.04 "Hg (Jan 30, 4:00 PM)
Average42 °F74%30.34 "Hg
* Reported Jan 24 10:00 AM — Feb 8 10:00 AM, Chongqing, Weather by CustomWeather, © 2016

Note: Actual official high and low records may vary slightly from our data, if they occured in-between our weather recording intervals... More about our weather records

Advertising

Chongqing Weather History for the Previous 24 Hours

 ConditionsComfort  
Time TempWeatherWind HumidityBarometerVisibility
10:00 AM
Mon, Feb 8
50 °FSunny.10 mph47%30.18 "Hg10 mi
9:00 AM48 °FSunny.13 mph50%30.15 "Hg10 mi
8:00 AM43 °FSunny.10 mph61%30.15 "Hg10 mi
7:00 AM45 °FClear.13 mph57%30.15 "Hg10 mi
6:00 AM41 °FClear.8 mph66%30.15 "Hg10 mi
5:00 AM43 °FClear.8 mph66%30.18 "Hg10 mi
4:00 AM41 °FClear.6 mph70%30.18 "Hg10 mi
3:00 AM41 °FClear.8 mph70%30.21 "Hg10 mi
2:00 AM43 °FClear.6 mph66%30.24 "Hg10 mi
1:00 AM43 °FClear.6 mph66%30.24 "Hg10 mi
12:00 AM45 °FClear.8 mph61%30.27 "Hg10 mi
11:00 PM
Sun, Feb 7
45 °FClear.8 mph61%30.27 "Hg10 mi
10:00 PM48 °FClear.8 mph50%30.27 "Hg10 mi
9:00 PM48 °FClear.6 mph46%30.27 "Hg10 mi
8:00 PM48 °FClear.6 mph46%30.27 "Hg10 mi
7:00 PM54 °FClear.6 mph38%30.27 "Hg10 mi
6:00 PM59 °FSunny.3 mph25%30.27 "Hg10 mi
5:00 PM61 °FPassing clouds.3 mph27%30.30 "HgN/A
4:00 PM61 °FPassing clouds.3 mph27%30.30 "HgN/A
3:00 PM59 °FPassing clouds.3 mph36%30.33 "HgN/A
2:00 PM57 °FSunny.1 mph41%30.39 "Hg10 mi
1:00 PM54 °FHaze.3 mph47%30.42 "Hg3 mi
12:00 PM54 °FHaze.1 mph63%30.48 "Hg2 mi
11:00 AM48 °FFog.1 mph71%30.48 "Hg2 mi
Weather by CustomWeather, © 2016

See weather overviewHow to use our weather pages